,,,PA_Meas_PMT16A,,PR_Meas_QMR101_102,,RH_Meas_QMH101,,SR_Meas_QMS101,,TA_Meas_QMH101,,GenWind,,GenWind,
date,time,status,PA,status,PR,status,RH,status,SR,status,TA,status,DirAvg,status,SpdAvg,
2008-04-21, 00:00:04,VALID,1001.39,VALID,0,VALID,96.7876,VALID,0,VALID,23.5496,VALID,21,VALID,0,
2008-04-21, 00:01:04,VALID,1001.36,VALID,0,VALID,96.7571,VALID,0.100563,VALID,23.5496,VALID,21,VALID,0,
2008-04-21, 00:02:04,VALID,1001.39,VALID,0,VALID,96.7647,VALID,0.100563,VALID,23.5496,VALID,21,VALID,0,
2008-04-21, 00:03:04,VALID,1001.37,VALID,0,VALID,96.7723,VALID,0.100563,VALID,23.5496,VALID,21,VALID,0,
2008-04-21, 00:04:04,VALID,1001.36,VALID,0,VALID,96.7723,VALID,0.100563,VALID,23.5089,VALID,21,VALID,0.0460938,
2008-04-21, 00:05:04,VALID,1001.34,VALID,0,VALID,96.78,VALID,0.100563,VALID,23.5284,VALID,21,VALID,0.308594,
2008-04-21, 00:06:04,VALID,1001.3,VALID,0,VALID,96.7723,VALID,0,VALID,23.5496,VALID,21,VALID,0.175391,
2008-04-21, 00:07:04,VALID,1001.3,VALID,0,VALID,96.7876,VALID,0.100563,VALID,23.5284,VALID,21,VALID,0,
2008-04-21, 00:08:04,VALID,1001.27,VALID,0,VALID,96.7647,VALID,0.100563,VALID,23.5089,VALID,21,VALID,0,
2008-04-21, 00:09:04,VALID,1001.26,VALID,0,VALID,96.7647,VALID,0,VALID,23.5089,VALID,21,VALID,0,
2008-04-21, 00:10:04,VALID,1001.23,VALID,0,VALID,96.7723,VALID,0,VALID,23.4894,VALID,21,VALID,0.0882813,
2008-04-21, 00:11:04,VALID,1001.25,VALID,0,VALID,96.7342,VALID,0.100563,VALID,23.4894,VALID,21,VALID,0,
2008-04-21, 00:12:04,VALID,1001.2,VALID,0,VALID,96.7342,VALID,0,VALID,23.47,VALID,21,VALID,0,
2008-04-21, 00:13:04,VALID,1001.18,VALID,0,VALID,96.7342,VALID,0.100563,VALID,23.4505,VALID,21,VALID,0,
2008-04-21, 00:14:04,VALID,1001.17,VALID,0,VALID,96.7342,VALID,0.100563,VALID,23.4311,VALID,21,VALID,0,
2008-04-21, 00:15:04,VALID,1001.16,VALID,0,VALID,96.7266,VALID,0,VALID,23.4116,VALID,21,VALID,0,
2008-04-21, 00:16:04,VALID,1001.15,VALID,0,VALID,96.7266,VALID,0.100563,VALID,23.3921,VALID,21,VALID,0,
2008-04-21, 00:17:04,VALID,1001.14,VALID,0,VALID,96.7647,VALID,0.100563,VALID,23.4116,VALID,21,VALID,0,
2008-04-21, 00:18:04,VALID,1001.15,VALID,0,VALID,96.78,VALID,0.100563,VALID,23.4328,VALID,21,VALID,0,
2008-04-21, 00:19:04,VALID,1001.13,VALID,0,VALID,96.7876,VALID,0.100563,VALID,23.4328,VALID,21,VALID,0,
2008-04-21, 00:20:04,VALID,1001.14,VALID,0,VALID,96.7876,VALID,0,VALID,23.3921,VALID,21,VALID,0.217969,
2008-04-21, 00:21:04,VALID,1001.11,VALID,0,VALID,96.7647,VALID,0,VALID,23.3744,VALID,21,VALID,0.00742187,
2008-04-21, 00:22:04,VALID,1001.08,VALID,0,VALID,96.7495,VALID,0.100563,VALID,23.355,VALID,21,VALID,0.228906,
2008-04-21, 00:23:04,VALID,1001.07,VALID,0,VALID,96.7571,VALID,0.100563,VALID,23.3143,VALID,21,VALID,0.310547,
2008-04-21, 00:24:04,VALID,1001.04,VALID,0,VALID,96.7342,VALID,0.100563,VALID,23.2754,VALID,21,VALID,0.359375,
2008-04-21, 00:25:04,VALID,1001.02,VALID,0,VALID,96.7418,VALID,0.100563,VALID,23.2771,VALID,21,VALID,0.155469,
2008-04-21, 00:26:04,VALID,1001.04,VALID,0,VALID,96.7342,VALID,0.100563,VALID,23.2364,VALID,21,VALID,0.0238281,
2008-04-21, 00:27:04,VALID,1001.03,VALID,0,VALID,96.7418,VALID,0,VALID,23.2382,VALID,21,VALID,0,
2008-04-21, 00:28:04,VALID,1001,VALID,0,VALID,96.7571,VALID,0,VALID,23.1975,VALID,21,VALID,0,
2008-04-21, 00:29:04,VALID,1000.96,VALID,0,VALID,96.7647,VALID,0,VALID,23.1993,VALID,21,VALID,0,
2008-04-21, 00:30:04,VALID,1000.94,VALID,0,VALID,96.8029,VALID,0.100563,VALID,23.1975,VALID,21,VALID,0,
2008-04-21, 00:31:04,VALID,1000.94,VALID,0,VALID,96.8105,VALID,0,VALID,23.178,VALID,21,VALID,0,
2008-04-21, 00:32:04,VALID,1000.92,VALID,0,VALID,96.8258,VALID,0.100563,VALID,23.1975,VALID,21,VALID,0,
2008-04-21, 00:33:04,VALID,1000.93,VALID,0,VALID,96.8639,VALID,0.100563,VALID,23.2382,VALID,21,VALID,0.21875,
2008-04-21, 00:34:04,VALID,1000.89,VALID,0,VALID,96.8563,VALID,0,VALID,23.217,VALID,21,VALID,0.0242187,
2008-04-21, 00:35:04,VALID,1000.88,VALID,0,VALID,96.8792,VALID,0.100563,VALID,23.217,VALID,21,VALID,0.194141,
2008-04-21, 00:36:04,VALID,1000.85,VALID,0,VALID,96.8792,VALID,0.100563,VALID,23.2364,VALID,21,VALID,0.155078,
2008-04-21, 00:37:04,VALID,1000.85,VALID,0,VALID,96.8868,VALID,0.100563,VALID,23.2364,VALID,21,VALID,0.257422,
2008-04-21, 00:38:04,VALID,1000.81,VALID,0,VALID,96.8792,VALID,0.100563,VALID,23.217,VALID,21,VALID,0.539844,
2008-04-21, 00:39:04,VALID,1000.82,VALID,0,VALID,96.78,VALID,0,VALID,23.1816,VALID,21,VALID,0.299219,
2008-04-21, 00:40:04,VALID,1000.83,VALID,0,VALID,96.7571,VALID,0,VALID,23.1232,VALID,21,VALID,0.163281,
2008-04-21, 00:41:04,VALID,1000.8,VALID,0,VALID,96.78,VALID,0,VALID,23.0825,VALID,21,VALID,0,
2008-04-21, 00:42:04,VALID,1000.78,VALID,0,VALID,96.7952,VALID,0,VALID,23.0825,VALID,21,VALID,0,
2008-04-21, 00:43:04,VALID,1000.79,VALID,0,VALID,96.8334,VALID,0,VALID,23.0825,VALID,21,VALID,0,
2008-04-21, 00:44:04,VALID,1000.78,VALID,0,VALID,96.8639,VALID,0,VALID,23.1019,VALID,21,VALID,0,
2008-04-21, 00:45:04,VALID,1000.8,VALID,0,VALID,96.8868,VALID,0,VALID,23.1214,VALID,21,VALID,0,
2008-04-21, 00:46:04,VALID,1000.8,VALID,0,VALID,96.8868,VALID,0,VALID,23.1214,VALID,21,VALID,0,
2008-04-21, 00:47:04,VALID,1000.83,VALID,0,VALID,96.8944,VALID,0,VALID,23.1409,VALID,21,VALID,0,
2008-04-21, 00:48:04,VALID,1000.79,VALID,0,VALID,96.9097,VALID,0,VALID,23.1603,VALID,21,VALID,0,
2008-04-21, 00:49:04,VALID,1000.79,VALID,0,VALID,96.902,VALID,0,VALID,23.1409,VALID,21,VALID,0,
2008-04-21, 00:50:04,VALID,1000.78,VALID,0,VALID,96.9173,VALID,0,VALID,23.201,VALID,21,VALID,0,
2008-04-21, 00:51:04,VALID,1000.77,VALID,0,VALID,96.9173,VALID,0,VALID,23.1993,VALID,21,VALID,0,
2008-04-21, 00:52:04,VALID,1000.76,VALID,0,VALID,96.9097,VALID,0,VALID,23.2187,VALID,21,VALID,0,
2008-04-21, 00:53:04,VALID,1000.73,VALID,0,VALID,96.9173,VALID,0,VALID,23.2594,VALID,21,VALID,0,
2008-04-21, 00:54:04,VALID,1000.73,VALID,0,VALID,96.9173,VALID,0,VALID,23.24,VALID,21,VALID,0.0378906,
2008-04-21, 00:55:04,VALID,1000.74,VALID,0,VALID,96.9097,VALID,0,VALID,23.24,VALID,21,VALID,0,
2008-04-21, 00:56:04,VALID,1000.7,VALID,0,VALID,96.8944,VALID,0,VALID,23.1816,VALID,21,VALID,0.00078125,
2008-04-21, 00:57:04,VALID,1000.72,VALID,0,VALID,96.8486,VALID,0,VALID,23.1232,VALID,21,VALID,0.234766,
2008-04-21, 00:58:04,VALID,1000.7,VALID,0,VALID,96.7876,VALID,0,VALID,23.0648,VALID,21,VALID,0.123828,
2008-04-21, 00:59:04,VALID,1000.67,VALID,0,VALID,96.8029,VALID,0,VALID,23.0241,VALID,21,VALID,0,
2008-04-21, 01:00:04,VALID,1000.65,VALID,0,VALID,96.8563,VALID,0,VALID,23.0258,VALID,21,VALID,0.246094,
2008-04-21, 01:01:04,VALID,1000.66,VALID,0,VALID,96.9554,VALID,0,VALID,23.063,VALID,21,VALID,0.153125,
2008-04-21, 01:02:04,VALID,1000.63,VALID,0,VALID,96.8868,VALID,0,VALID,23.063,VALID,21,VALID,0.374609,
2008-04-21, 01:03:04,VALID,1000.63,VALID,0,VALID,96.8486,VALID,0,VALID,23.0258,VALID,21,VALID,0.426562,
2008-04-21, 01:04:04,VALID,1000.63,VALID,0,VALID,96.9478,VALID,0,VALID,23.0241,VALID,21,VALID,0.216797,
2008-04-21, 01:05:04,VALID,1000.63,VALID,0,VALID,97.0165,VALID,0,VALID,23.1037,VALID,21,VALID,0.046875,
2008-04-21, 01:06:04,VALID,1000.6,VALID,0,VALID,97.0317,VALID,0,VALID,23.1409,VALID,21,VALID,0.266406,
2008-04-21, 01:07:04,VALID,1000.61,VALID,0,VALID,97.0165,VALID,0,VALID,23.1798,VALID,21,VALID,0.221484,
2008-04-21, 01:08:04,VALID,1000.6,VALID,0,VALID,97.0622,VALID,0,VALID,23.2187,VALID,21,VALID,0.301953,
2008-04-21, 01:09:04,VALID,1000.59,VALID,0,VALID,97.0622,VALID,0,VALID,23.2577,VALID,21,VALID,0.293359,
2008-04-21, 01:10:04,VALID,1000.55,VALID,0,VALID,97.0394,VALID,0,VALID,23.2771,VALID,21,VALID,0.283594,
2008-04-21, 01:11:04,VALID,1000.52,VALID,0,VALID,97.0317,VALID,0,VALID,23.2754,VALID,20,VALID,0.362891,
2008-04-21, 01:12:04,VALID,1000.5,VALID,0,VALID,96.9936,VALID,0,VALID,23.2983,VALID,19,VALID,0.305078,
2008-04-21, 01:13:04,VALID,1000.48,VALID,0,VALID,96.9631,VALID,0,VALID,23.2205,VALID,19,VALID,0.334375,
2008-04-21, 01:14:04,VALID,1000.45,VALID,0,VALID,96.9402,VALID,0,VALID,23.1603,VALID,19,VALID,0.430469,
2008-04-21, 01:15:04,VALID,1000.43,VALID,0,VALID,96.902,VALID,0,VALID,23.1037,VALID,19,VALID,0.457812,
2008-04-21, 01:16:04,VALID,1000.4,VALID,0,VALID,96.8181,VALID,0,VALID,23.0648,VALID,19,VALID,0.532812,
2008-04-21, 01:17:04,VALID,1000.42,VALID,0,VALID,96.8334,VALID,0,VALID,23.0453,VALID,19,VALID,0.493359,
2008-04-21, 01:18:04,VALID,1000.4,VALID,0,VALID,96.8486,VALID,0,VALID,23.0046,VALID,19,VALID,0.391406,
2008-04-21, 01:19:04,VALID,1000.38,VALID,0,VALID,96.8715,VALID,0,VALID,22.9852,VALID,19,VALID,0.24375,
2008-04-21, 01:20:04,VALID,1000.39,VALID,0,VALID,96.902,VALID,0,VALID,22.9869,VALID,19,VALID,0.141406,
2008-04-21, 01:21:04,VALID,1000.39,VALID,0,VALID,96.9097,VALID,0,VALID,22.9869,VALID,19,VALID,0,
2008-04-21, 01:22:04,VALID,1000.39,VALID,0,VALID,96.9402,VALID,0,VALID,22.9869,VALID,19,VALID,0,
2008-04-21, 01:23:04,VALID,1000.4,VALID,0,VALID,96.9631,VALID,0,VALID,22.9852,VALID,19,VALID,0,
2008-04-21, 01:24:04,VALID,1000.38,VALID,0,VALID,97.0088,VALID,0,VALID,23.0258,VALID,19,VALID,0,
2008-04-21, 01:25:04,VALID,1000.4,VALID,0,VALID,96.986,VALID,0,VALID,23.0046,VALID,19,VALID,0,
2008-04-21, 01:26:04,VALID,1000.39,VALID,0,VALID,96.986,VALID,0,VALID,22.964,VALID,19,VALID,0,
2008-04-21, 01:27:04,VALID,1000.39,VALID,0,VALID,96.986,VALID,0,VALID,22.9657,VALID,19,VALID,0,
2008-04-21, 01:28:04,VALID,1000.38,VALID,0,VALID,96.9783,VALID,0,VALID,23.0064,VALID,19,VALID,0,
2008-04-21, 01:29:04,VALID,1000.34,VALID,0,VALID,96.9707,VALID,0,VALID,22.9657,VALID,19,VALID,0,
2008-04-21, 01:30:04,VALID,1000.35,VALID,0,VALID,96.9554,VALID,0,VALID,22.9675,VALID,19,VALID,0.165625,
2008-04-21, 01:31:04,VALID,1000.34,VALID,0,VALID,96.9631,VALID,0,VALID,22.9073,VALID,19,VALID,0.386719,
2008-04-21, 01:32:04,VALID,1000.36,VALID,0,VALID,96.9249,VALID,0,VALID,22.8879,VALID,19,VALID,0.358984,
2008-04-21, 01:33:04,VALID,1000.37,VALID,0,VALID,96.9402,VALID,0,VALID,22.8684,VALID,19,VALID,0.394922,
2008-04-21, 01:34:04,VALID,1000.34,VALID,0,VALID,96.9783,VALID,0,VALID,22.8472,VALID,19,VALID,0.382422,
2008-04-21, 01:35:04,VALID,1000.35,VALID,0,VALID,96.9402,VALID,0,VALID,22.8489,VALID,19,VALID,0.34375,
2008-04-21, 01:36:04,VALID,1000.35,VALID,0,VALID,96.9326,VALID,0,VALID,22.8489,VALID,19,VALID,0.351953,
2008-04-21, 01:37:04,VALID,1000.35,VALID,0,VALID,96.9783,VALID,0,VALID,22.8489,VALID,19,VALID,0.285547,
2008-04-21, 01:38:04,VALID,1000.33,VALID,0,VALID,96.986,VALID,0,VALID,22.8278,VALID,19,VALID,0.341797,
2008-04-21, 01:39:04,VALID,1000.29,VALID,0,VALID,97.0928,VALID,0,VALID,22.9463,VALID,19,VALID,0.230469,
2008-04-21, 01:40:04,VALID,1000.3,VALID,0,VALID,97.1156,VALID,0,VALID,23.0241,VALID,19,VALID,0.146875,
2008-04-21, 01:41:04,VALID,1000.3,VALID,0,VALID,97.108,VALID,0,VALID,23.0842,VALID,19,VALID,0.110156,
2008-04-21, 01:42:04,VALID,1000.28,VALID,0,VALID,97.108,VALID,0,VALID,23.1019,VALID,19,VALID,0,
2008-04-21, 01:43:04,VALID,1000.29,VALID,0,VALID,97.0928,VALID,0,VALID,23.0825,VALID,19,VALID,0,
2008-04-21, 01:44:04,VALID,1000.26,VALID,0,VALID,97.1004,VALID,0,VALID,23.1019,VALID,19,VALID,0,
2008-04-21, 01:45:04,VALID,1000.26,VALID,0,VALID,97.0622,VALID,0,VALID,23.063,VALID,19,VALID,0,
2008-04-21, 01:46:04,VALID,1000.25,VALID,0,VALID,97.047,VALID,0,VALID,23.0046,VALID,19,VALID,0,
2008-04-21, 01:47:04,VALID,1000.27,VALID,0,VALID,97.0394,VALID,0,VALID,22.9852,VALID,19,VALID,0,
2008-04-21, 01:48:04,VALID,1000.26,VALID,0,VALID,97.0394,VALID,0,VALID,23.0046,VALID,19,VALID,0,
2008-04-21, 01:49:04,VALID,1000.26,VALID,0,VALID,97.0241,VALID,0,VALID,22.9657,VALID,19,VALID,0,
2008-04-21, 01:50:04,VALID,1000.24,VALID,0,VALID,97.0394,VALID,0,VALID,22.9852,VALID,19,VALID,0,
2008-04-21, 01:51:04,VALID,1000.23,VALID,0,VALID,97.0317,VALID,0,VALID,23.0046,VALID,19,VALID,0,
2008-04-21, 01:52:04,VALID,1000.22,VALID,0,VALID,97.0241,VALID,0,VALID,22.9852,VALID,19,VALID,0,
2008-04-21, 01:53:04,VALID,1000.21,VALID,0,VALID,97.0165,VALID,0,VALID,22.9675,VALID,19,VALID,0,
2008-04-21, 01:54:04,VALID,1000.22,VALID,0,VALID,97.0317,VALID,0,VALID,22.9268,VALID,19,VALID,0,
2008-04-21, 01:55:04,VALID,1000.22,VALID,0,VALID,97.0012,VALID,0,VALID,22.9285,VALID,19,VALID,0,
2008-04-21, 01:56:04,VALID,1000.19,VALID,0,VALID,97.0088,VALID,0,VALID,22.8879,VALID,19,VALID,0,
2008-04-21, 01:57:04,VALID,1000.19,VALID,0,VALID,96.9936,VALID,0,VALID,22.8879,VALID,19,VALID,0,
2008-04-21, 01:58:04,VALID,1000.18,VALID,0,VALID,97.0012,VALID,0,VALID,22.8896,VALID,19,VALID,0,
2008-04-21, 01:59:04,VALID,1000.16,VALID,0,VALID,96.9936,VALID,0,VALID,22.8489,VALID,19,VALID,0,
2008-04-21, 02:00:04,VALID,1000.14,VALID,0,VALID,97.0012,VALID,0,VALID,22.8701,VALID,19,VALID,0,
2008-04-21, 02:01:04,VALID,1000.14,VALID,0,VALID,97.0088,VALID,0,VALID,22.8295,VALID,19,VALID,0,
2008-04-21, 02:02:04,VALID,1000.12,VALID,0,VALID,97.0088,VALID,0,VALID,22.81,VALID,19,VALID,0,
2008-04-21, 02:03:04,VALID,1000.09,VALID,0,VALID,97.0165,VALID,0,VALID,22.8295,VALID,19,VALID,0,
2008-04-21, 02:04:04,VALID,1000.09,VALID,0,VALID,97.0317,VALID,0,VALID,22.8295,VALID,19,VALID,0,
2008-04-21, 02:05:05,VALID,1000.07,VALID,0,VALID,97.0317,VALID,0,VALID,22.8507,VALID,19,VALID,0,
2008-04-21, 02:06:05,VALID,1000.05,VALID,0,VALID,97.047,VALID,0,VALID,22.8295,VALID,19,VALID,0,
2008-04-21, 02:07:05,VALID,1000.04,VALID,0,VALID,97.0317,VALID,0,VALID,22.81,VALID,19,VALID,0,
2008-04-21, 02:08:05,VALID,1000.04,VALID,0,VALID,97.047,VALID,0,VALID,22.81,VALID,19,VALID,0,
2008-04-21, 02:09:05,VALID,1000.02,VALID,0,VALID,97.0622,VALID,0,VALID,22.81,VALID,19,VALID,0,
2008-04-21, 02:10:05,VALID,1000.03,VALID,0,VALID,97.0622,VALID,0,VALID,22.8295,VALID,19,VALID,0,
2008-04-21, 02:11:05,VALID,1000.01,VALID,0,VALID,97.0699,VALID,0,VALID,22.8507,VALID,19,VALID,0,
2008-04-21, 02:12:05,VALID,1000.02,VALID,0,VALID,97.0546,VALID,0,VALID,22.8701,VALID,19,VALID,0,
2008-04-21, 02:13:05,VALID,1000.02,VALID,0,VALID,97.0775,VALID,0,VALID,22.8701,VALID,19,VALID,0,
2008-04-21, 02:14:05,VALID,1000.03,VALID,0,VALID,97.0928,VALID,0,VALID,22.8684,VALID,19,VALID,0,
2008-04-21, 02:15:05,VALID,1000.08,VALID,0,VALID,97.0928,VALID,0,VALID,22.9073,VALID,19,VALID,0,
2008-04-21, 02:16:05,VALID,1000.05,VALID,0,VALID,97.1004,VALID,0,VALID,22.9285,VALID,19,VALID,0,
2008-04-21, 02:17:05,VALID,1000.05,VALID,0,VALID,97.108,VALID,0,VALID,22.9073,VALID,19,VALID,0,
2008-04-21, 02:18:05,VALID,1000.06,VALID,0,VALID,97.0851,VALID,0,VALID,22.9073,VALID,19,VALID,0,
2008-04-21, 02:19:05,VALID,1000.07,VALID,0,VALID,97.0775,VALID,0,VALID,22.9073,VALID,19,VALID,0,
2008-04-21, 02:20:05,VALID,1000.06,VALID,0,VALID,97.047,VALID,0,VALID,22.8489,VALID,19,VALID,0,
2008-04-21, 02:21:05,VALID,1000.06,VALID,0,VALID,97.0317,VALID,0,VALID,22.7694,VALID,19,VALID,0,
2008-04-21, 02:22:05,VALID,1000.04,VALID,0,VALID,97.0012,VALID,0,VALID,22.7728,VALID,19,VALID,0,
2008-04-21, 02:23:05,VALID,1000.04,VALID,0,VALID,97.0317,VALID,0,VALID,22.7534,VALID,19,VALID,0,
2008-04-21, 02:24:05,VALID,1000.01,VALID,0,VALID,97.0317,VALID,0,VALID,22.7534,VALID,19,VALID,0,
2008-04-21, 02:25:05,VALID,1000.01,VALID,0,VALID,97.0012,VALID,0,VALID,22.7339,VALID,19,VALID,0,
2008-04-21, 02:26:05,VALID,999.971,VALID,0,VALID,97.0165,VALID,0,VALID,22.6933,VALID,19,VALID,0,
2008-04-21, 02:27:05,VALID,999.949,VALID,0,VALID,97.0317,VALID,0,VALID,22.6933,VALID,19,VALID,0,
2008-04-21, 02:28:05,VALID,999.94,VALID,0,VALID,97.0394,VALID,0,VALID,22.6738,VALID,19,VALID,0,
2008-04-21, 02:29:05,VALID,999.903,VALID,0,VALID,97.0394,VALID,0,VALID,22.6721,VALID,19,VALID,0,
2008-04-21, 02:30:05,VALID,999.895,VALID,0,VALID,97.0546,VALID,0,VALID,22.7127,VALID,19,VALID,0,
2008-04-21, 02:31:05,VALID,999.88,VALID,0,VALID,97.0851,VALID,0,VALID,22.7127,VALID,19,VALID,0,
2008-04-21, 02:32:05,VALID,999.832,VALID,0,VALID,97.0851,VALID,0,VALID,22.7516,VALID,19,VALID,0,
2008-04-21, 02:33:05,VALID,999.847,VALID,0,VALID,97.0775,VALID,0,VALID,22.711,VALID,19,VALID,0,
2008-04-21, 02:34:05,VALID,999.81,VALID,0,VALID,97.0622,VALID,0,VALID,22.7322,VALID,19,VALID,0,
2008-04-21, 02:35:05,VALID,999.862,VALID,0,VALID,97.0928,VALID,0,VALID,22.7322,VALID,19,VALID,0,
2008-04-21, 02:36:05,VALID,999.825,VALID,0,VALID,97.0622,VALID,0,VALID,22.7322,VALID,19,VALID,0,
2008-04-21, 02:37:05,VALID,999.848,VALID,0,VALID,97.0928,VALID,0,VALID,22.7322,VALID,19,VALID,0,
2008-04-21, 02:38:05,VALID,999.842,VALID,0,VALID,97.108,VALID,0,VALID,22.7711,VALID,19,VALID,0,
2008-04-21, 02:39:05,VALID,999.856,VALID,0,VALID,97.1004,VALID,0,VALID,22.8118,VALID,19,VALID,0,
2008-04-21, 02:40:05,VALID,999.851,VALID,0,VALID,97.1233,VALID,0,VALID,22.81,VALID,19,VALID,0,
2008-04-21, 02:41:05,VALID,999.86,VALID,0,VALID,97.1233,VALID,0,VALID,22.8489,VALID,19,VALID,0,
2008-04-21, 02:42:05,VALID,999.875,VALID,0,VALID,97.1385,VALID,0,VALID,22.8879,VALID,19,VALID,0,
2008-04-21, 02:43:05,VALID,999.842,VALID,0,VALID,97.1309,VALID,0,VALID,22.8896,VALID,19,VALID,0,
2008-04-21, 02:44:05,VALID,999.845,VALID,0,VALID,97.1309,VALID,0,VALID,22.8879,VALID,19,VALID,0,
2008-04-21, 02:45:05,VALID,999.817,VALID,0,VALID,97.1156,VALID,0,VALID,22.8684,VALID,19,VALID,0,
2008-04-21, 02:46:05,VALID,999.808,VALID,0,VALID,97.108,VALID,0,VALID,22.8489,VALID,19,VALID,0,
2008-04-21, 02:47:05,VALID,999.813,VALID,0,VALID,97.108,VALID,0,VALID,22.8295,VALID,19,VALID,0,
2008-04-21, 02:48:05,VALID,999.817,VALID,0,VALID,97.1309,VALID,0.100563,VALID,22.8684,VALID,19,VALID,0,
2008-04-21, 02:49:05,VALID,999.816,VALID,0,VALID,97.1233,VALID,0,VALID,22.8295,VALID,19,VALID,0,
2008-04-21, 02:50:05,VALID,999.808,VALID,0,VALID,97.0928,VALID,0,VALID,22.81,VALID,19,VALID,0,
2008-04-21, 02:51:05,VALID,999.822,VALID,0,VALID,97.108,VALID,0,VALID,22.81,VALID,19,VALID,0,
2008-04-21, 02:52:05,VALID,999.828,VALID,0,VALID,97.1156,VALID,0,VALID,22.7906,VALID,19,VALID,0,
2008-04-21, 02:53:05,VALID,999.842,VALID,0,VALID,97.0928,VALID,0,VALID,22.7711,VALID,19,VALID,0.4,
2008-04-21, 02:54:05,VALID,999.831,VALID,0,VALID,97.108,VALID,0,VALID,22.711,VALID,19,VALID,0.376953,
2008-04-21, 02:55:05,VALID,999.836,VALID,0,VALID,97.1004,VALID,0,VALID,22.7516,VALID,19,VALID,0.252734,
2008-04-21, 02:56:05,VALID,999.812,VALID,0,VALID,97.1004,VALID,0,VALID,22.7711,VALID,19,VALID,0.282422,
2008-04-21, 02:57:05,VALID,999.791,VALID,0,VALID,97.1233,VALID,0.100563,VALID,22.7516,VALID,19,VALID,0,
2008-04-21, 02:58:05,VALID,999.811,VALID,0,VALID,97.1004,VALID,0,VALID,22.7728,VALID,19,VALID,0.0316406,
2008-04-21, 02:59:05,VALID,999.809,VALID,0,VALID,97.1309,VALID,0,VALID,22.81,VALID,19,VALID,0.241797,
2008-04-21, 03:00:05,VALID,999.822,VALID,0,VALID,97.1233,VALID,0,VALID,22.81,VALID,19,VALID,0.323828,
2008-04-21, 03:01:05,VALID,999.808,VALID,0,VALID,97.1156,VALID,0,VALID,22.7906,VALID,19,VALID,0.4125,
2008-04-21, 03:02:05,VALID,999.803,VALID,0,VALID,97.1233,VALID,0,VALID,22.7711,VALID,19,VALID,0.351172,
2008-04-21, 03:03:05,VALID,999.815,VALID,0,VALID,97.108,VALID,0,VALID,22.7516,VALID,19,VALID,0.339844,
2008-04-21, 03:04:05,VALID,999.804,VALID,0,VALID,97.108,VALID,0,VALID,22.7516,VALID,19,VALID,0.31875,
2008-04-21, 03:05:05,VALID,999.869,VALID,0,VALID,97.1233,VALID,0,VALID,22.711,VALID,19,VALID,0.294922,
2008-04-21, 03:06:05,VALID,999.834,VALID,0,VALID,97.0928,VALID,0,VALID,22.7127,VALID,19,VALID,0.283203,
2008-04-21, 03:07:05,VALID,999.848,VALID,0,VALID,97.1233,VALID,0,VALID,22.7127,VALID,19,VALID,0.205859,
2008-04-21, 03:08:05,VALID,999.882,VALID,0,VALID,97.108,VALID,0,VALID,22.7127,VALID,19,VALID,0.145313,
2008-04-21, 03:09:05,VALID,999.909,VALID,0,VALID,97.1309,VALID,0,VALID,22.7516,VALID,19,VALID,0,
2008-04-21, 03:10:05,VALID,999.908,VALID,0,VALID,97.1614,VALID,0,VALID,22.7711,VALID,19,VALID,0,
2008-04-21, 03:11:05,VALID,999.912,VALID,0,VALID,97.1462,VALID,0,VALID,22.7906,VALID,19,VALID,0,
2008-04-21, 03:12:05,VALID,999.919,VALID,0,VALID,97.1462,VALID,0,VALID,22.81,VALID,19,VALID,0,
2008-04-21, 03:13:05,VALID,999.951,VALID,0,VALID,97.1309,VALID,0,VALID,22.8118,VALID,19,VALID,0.0617188,
2008-04-21, 03:14:05,VALID,999.951,VALID,0,VALID,97.1233,VALID,0,VALID,22.7906,VALID,19,VALID,0.240625,
2008-04-21, 03:15:05,VALID,999.973,VALID,0,VALID,97.1309,VALID,0,VALID,22.7711,VALID,19,VALID,0.278516,
2008-04-21, 03:16:05,VALID,1000.01,VALID,0,VALID,97.1156,VALID,0,VALID,22.6915,VALID,19,VALID,0.341797,
2008-04-21, 03:17:05,VALID,999.975,VALID,0,VALID,97.1309,VALID,0,VALID,22.7127,VALID,19,VALID,0.279687,
2008-04-21, 03:18:05,VALID,999.984,VALID,0,VALID,97.1385,VALID,0,VALID,22.7711,VALID,19,VALID,0.230469,
2008-04-21, 03:19:05,VALID,1000.01,VALID,0,VALID,97.1385,VALID,0.100563,VALID,22.7499,VALID,19,VALID,0.0277344,
2008-04-21, 03:20:05,VALID,999.986,VALID,0,VALID,97.1309,VALID,0,VALID,22.7711,VALID,19,VALID,0,
2008-04-21, 03:21:05,VALID,999.978,VALID,0,VALID,97.1156,VALID,0,VALID,22.711,VALID,19,VALID,0.347656,
2008-04-21, 03:22:05,VALID,1000,VALID,0,VALID,97.108,VALID,0,VALID,22.7127,VALID,19,VALID,0.340234,
2008-04-21, 03:23:05,VALID,1000.02,VALID,0,VALID,97.1004,VALID,0,VALID,22.6933,VALID,19,VALID,0.266406,
2008-04-21, 03:24:05,VALID,999.982,VALID,0,VALID,97.0851,VALID,0,VALID,22.6543,VALID,19,VALID,0.130859,
2008-04-21, 03:25:05,VALID,999.991,VALID,0,VALID,97.0928,VALID,0,VALID,22.6349,VALID,19,VALID,0.171484,
2008-04-21, 03:26:05,VALID,999.991,VALID,0,VALID,97.1156,VALID,0,VALID,22.6933,VALID,19,VALID,0.196875,
2008-04-21, 03:27:05,VALID,999.991,VALID,0,VALID,97.1385,VALID,0,VALID,22.7127,VALID,19,VALID,0,
2008-04-21, 03:28:05,VALID,999.976,VALID,0,VALID,97.108,VALID,0,VALID,22.7144,VALID,19,VALID,0,
2008-04-21, 03:29:05,VALID,999.958,VALID,0,VALID,97.1156,VALID,0,VALID,22.6738,VALID,19,VALID,0,
2008-04-21, 03:30:05,VALID,999.958,VALID,0,VALID,97.1385,VALID,0,VALID,22.6933,VALID,19,VALID,0,
2008-04-21, 03:31:05,VALID,999.957,VALID,0,VALID,97.1691,VALID,0,VALID,22.7711,VALID,19,VALID,0.230078,
2008-04-21, 03:32:05,VALID,999.956,VALID,0,VALID,97.1919,VALID,0,VALID,22.8684,VALID,19,VALID,0.0796875,
2008-04-21, 03:33:05,VALID,999.957,VALID,0,VALID,97.1767,VALID,0,VALID,22.9091,VALID,19,VALID,0.114453,
2008-04-21, 03:34:05,VALID,999.97,VALID,0,VALID,97.1919,VALID,0,VALID,22.9268,VALID,19,VALID,0.00585938,
2008-04-21, 03:35:05,VALID,999.991,VALID,0,VALID,97.1996,VALID,0,VALID,23.0258,VALID,19,VALID,0.00351562,
2008-04-21, 03:36:05,VALID,1000,VALID,0,VALID,97.2072,VALID,0,VALID,23.0241,VALID,19,VALID,0.239844,
2008-04-21, 03:37:05,VALID,1000.05,VALID,0,VALID,97.1462,VALID,0,VALID,23.0046,VALID,19,VALID,0.332422,
2008-04-21, 03:38:05,VALID,1000.04,VALID,0,VALID,97.1385,VALID,0,VALID,22.9073,VALID,19,VALID,0.335547,
2008-04-21, 03:39:05,VALID,1000.09,VALID,0,VALID,97.1156,VALID,0,VALID,22.8896,VALID,19,VALID,0.405859,
2008-04-21, 03:40:05,VALID,1000.07,VALID,0,VALID,97.1385,VALID,0,VALID,22.8489,VALID,19,VALID,0.346875,
2008-04-21, 03:41:05,VALID,1000.11,VALID,0,VALID,97.1156,VALID,0,VALID,22.8295,VALID,19,VALID,0.453516,
2008-04-21, 03:42:05,VALID,1000.12,VALID,0,VALID,97.1309,VALID,0,VALID,22.8489,VALID,19,VALID,0.443359,
2008-04-21, 03:43:05,VALID,1000.11,VALID,0,VALID,97.0928,VALID,0,VALID,22.7516,VALID,19,VALID,0.316797,
2008-04-21, 03:44:05,VALID,1000.12,VALID,0,VALID,97.1004,VALID,0,VALID,22.7339,VALID,19,VALID,0.207813,
2008-04-21, 03:45:05,VALID,1000.14,VALID,0,VALID,97.108,VALID,0,VALID,22.7127,VALID,19,VALID,0,
2008-04-21, 03:46:05,VALID,1000.16,VALID,0,VALID,97.1614,VALID,0,VALID,22.7516,VALID,19,VALID,0,
2008-04-21, 03:47:05,VALID,1000.19,VALID,0,VALID,97.1614,VALID,0,VALID,22.7906,VALID,19,VALID,0,
2008-04-21, 03:48:05,VALID,1000.19,VALID,0,VALID,97.1462,VALID,0,VALID,22.8295,VALID,19,VALID,0,
2008-04-21, 03:49:05,VALID,1000.17,VALID,0,VALID,97.1538,VALID,0,VALID,22.8507,VALID,19,VALID,0,
2008-04-21, 03:50:05,VALID,1000.25,VALID,0,VALID,97.1614,VALID,0,VALID,22.8312,VALID,19,VALID,0.337891,
2008-04-21, 03:51:05,VALID,1000.23,VALID,0,VALID,97.1538,VALID,0,VALID,22.81,VALID,19,VALID,0.329297,
2008-04-21, 03:52:05,VALID,1000.25,VALID,0,VALID,97.1767,VALID,0,VALID,22.8507,VALID,19,VALID,0.325391,
2008-04-21, 03:53:05,VALID,1000.27,VALID,0,VALID,97.1767,VALID,0,VALID,22.8295,VALID,19,VALID,0.303516,